Location: �bnet
(46.9957°N, 8.4908°E)
Time: 23:42:33
(UTC+00:00)

Cosmos 1378 - Pass Details

Date: 11 May 2021
Orbit: 490 x 499 km, 82.5° (Epoch: 18 June)

Event Time Altitude Azimuth Distance (km) Brightness Sun altitude
Exits shadow 23:34:52 52° 360° (N) 625 3.9 -24.8°
Drops below altitude 10° 23:37:45 10° 8° (N) 1,704 6.9 -24.8°
Sets 23:39:53 0° 9° (N) 2,594 8.2 -24.7°
